This demonstration page uses our WeatherBlox Daily Observations layout. Learn more.

Left ArrowRight Arrow

38.20091, -84.87328

Hourly Observations for August 22, 2017

Temp ( °F °C ) Dew Point ( °F °C ) Humidity (%) Winds ( mph kmh ) Pressure ( in mb ) Visibility ( mi km ) Precip ( " mm )
12:53 am 00:53 Clear 77 25 67 19.4 71 71 S 5 7 30.05 1018 10 16 0.00 0.00
1:53 am 01:53 Clear 77 25 67 19.4 71 71 S 7 11 30.02 1017 10 16 0.00 0.00
2:53 am 02:53 Clear 75 23.9 67 19.4 76 76 SSW 6 9 30.01 1016 10 16 0.00 0.00
3:53 am 03:53 Clear 74 23.3 66 18.9 76 76 S 5 7 30.00 1016 10 16 0.00 0.00
4:53 am 04:53 Clear 75 23.9 66 18.9 74 74 S 7 11 29.98 1015 10 16 0.00 0.00
5:53 am 05:53 Clear 73 22.8 66 18.9 79 79 S 6 9 29.99 1016 10 16 0.00 0.00
6:53 am 06:53 Clear 73 22.8 66 18.9 79 79 S 7 11 29.99 1016 10 16 0.00 0.00
7:53 am 07:53 Sunny 74 23.3 67 19.4 79 79 SSW 7 11 29.99 1016 10 16 0.00 0.00
8:53 am 08:53 Sunny 78 25.6 67 19.4 69 69 SSW 12 19 29.99 1016 10 16 0.00 0.00
9:53 am 09:53 Sunny 81 27.2 70 21.1 69 69 SW 13 20 29.98 1015 10 16 0.00 0.00
10:53 am 10:53 Sunny 85 29.4 72 22.2 65 65 SW 17 28 29.97 1015 10 16 0.00 0.00
11:49 am 11:49 Mostly Cloudy 88 31 72 22 59 59 SW 12 19 29.94 1014 10 16 0.00 0.00
11:53 am 11:53 Mostly Cloudy 87 30.6 72 22.2 61 61 WSW 12 19 29.97 1015 10 16 0.00 0.00
12:02 pm 12:02 Partly Cloudy 88 31.1 73 22.8 61 61 WSW 13 20 29.94 1014 10 16 0.00 0.00
12:53 pm 12:53 Mostly Sunny 89 31.7 71 21.7 55 55 SW 17 28 29.93 1014 10 16 0.00 0.00
1:53 pm 13:53 Mostly Cloudy 89 31.7 70 21.1 53 53 SW 21 33 29.91 1013 10 16 0.00 0.00
2:53 pm 14:53 Mostly Cloudy 89 31.7 69 20.6 52 52 W 7 11 29.89 1012 10 16 0.00 0.00
3:53 pm 15:53 Sunny 87 30.6 70 21.1 57 57 W 9 15 29.88 1012 10 16 0.00 0.00
4:53 pm 16:53 Sunny 86 30 70 21.1 59 59 W 10 17 29.87 1012 10 16 0.00 0.00
5:16 pm 17:16 Sunny with Nearby Thunderstorms 85 29.4 70 21.1 61 61 VRB 7 11 29.88 1012 10 16 0.00 0.00
5:41 pm 17:41 Mostly Cloudy with Thunderstorms 80 26.7 71 21.7 74 74 NW 22 35 29.91 1013 3 5 0.04 1.02
5:44 pm 17:44 Mostly Cloudy with Strong Thunderstorms 77 25 71 21.7 82 82 NW 17 28 29.91 1013 2 3 0.09 2.29
5:48 pm 17:48 Cloudy with Strong Thunderstorms 73 23 70 21 89 89 WNW 15 24 29.91 1013 1 1 0.19 4.83
5:53 pm 17:53 Cloudy with Thunderstorms 73 22.8 69 20.6 87 87 NW 17 28 29.91 1013 1 2 0.21 5.33
6:03 pm 18:03 Cloudy with Strong Thunderstorms 72 22.2 69 20.6 91 91 WNW 10 17 29.91 1013 1 2 0.09 2.29
6:14 pm 18:14 Cloudy with Thunderstorms 72 22.2 68 20 87 87 WNW 7 11 29.91 1013 3 5 0.11 2.79
6:33 pm 18:33 Partly Cloudy with Nearby Thunderstorms 72 22.2 69 20.6 91 91 NW 5 7 29.88 1012 8 13 0.13 3.30
6:43 pm 18:43 Partly Cloudy 72 22.2 69 20.6 91 91 VRB 3 6 29.91 1013 10 16 0.13 3.30
6:53 pm 18:53 Mostly Cloudy 72 22.2 69 20.6 91 91 WNW 3 6 29.91 1013 10 16 0.13 3.30
7:53 pm 19:53 Cloudy 72 22.2 69 20.6 91 91 NW 3 6 29.91 1013 10 16 0.00 0.00
8:53 pm 20:53 Cloudy 72 22.2 68 20 87 87 Calm 29.92 1013 10 16 0.00 0.00
9:53 pm 21:53 Cloudy 72 22.2 68 20 87 87 SW 3 6 29.93 1014 10 16 0.00 0.00
10:53 pm 22:53 Mostly Cloudy 71 21.7 68 20 90 90 WSW 3 6 29.93 1014 10 16 0.00 0.00
11:53 pm 23:53 Clear 71 21.7 68 20 90 90 Calm 29.93 1014 9 14 0.00 0.00

Powered by AerisWeather